This is the latest recevied weather packets stored in our database for station/object KC5TIL. If no packets are shown the sender has not sent any weather packets the latest 10 day(s).
| Time | Temp. | Humidity | Pressure | Rain* | Wind** | Luminosity | Snow |
|---|---|---|---|---|---|---|---|
| 1787865261 | 37.78° C | 38% | 1014.4 hPa | 0 mm | - | 478 W/m² | - |
| 1787864957 | 37.78° C | 38% | 1014.4 hPa | 0 mm | - | 463 W/m² | - |
| 1787864652 | 37.78° C | 38% | 1014.5 hPa | 0 mm | - | 547 W/m² | - |
| 1787864346 | 37.78° C | 38% | 1014.6 hPa | 0 mm | - | 576 W/m² | - |
| 1787864046 | 37.78° C | 39% | 1014.6 hPa | 0 mm | - | 578 W/m² | - |
| 1787863744 | 37.78° C | 39% | 1014.6 hPa | 0 mm | - | 625 W/m² | - |
| 1787863443 | 37.78° C | 38% | 1014.9 hPa | 0 mm | - | 626 W/m² | - |
| 1787863140 | 38.33° C | 38% | 1014.8 hPa | 0 mm | - | 661 W/m² | - |
| 1787862835 | 37.78° C | 40% | 1015 hPa | 0 mm | - | 730 W/m² | - |
| 1787862529 | 36.67° C | 40% | 1014.9 hPa | 0 mm | - | 603 W/m² | - |
| 1787862224 | 36.67° C | 38% | 1014.9 hPa | 0 mm | - | 330 W/m² | - |
| 1787861920 | 36.67° C | 38% | 1015 hPa | 0 mm | - | 323 W/m² | - |
| 1787861619 | 36.67° C | 39% | 1014.8 hPa | 0 mm | - | 392 W/m² | - |
| 1787861317 | 37.22° C | 39% | 1015 hPa | 0 mm | - | 373 W/m² | - |
| 1787861012 | 37.22° C | 39% | 1015.1 hPa | 0 mm | - | 402 W/m² | - |
| 1787860705 | 37.22° C | 39% | 1015 hPa | 0 mm | - | 355 W/m² | - |
| 1787860401 | 37.78° C | 38% | 1015 hPa | 0 mm | - | 483 W/m² | - |
| 1787860095 | 37.78° C | 39% | 1015 hPa | 0 mm | - | 575 W/m² | - |
| 1787859791 | 37.78° C | 40% | 1015 hPa | 0 mm | - | 573 W/m² | - |
| 1787859491 | 37.22° C | 40% | 1015.1 hPa | 0 mm | - | 557 W/m² | - |
| 1787859191 | 36.67° C | 41% | 1015.2 hPa | 0 mm | - | 465 W/m² | - |
| 1787858888 | 37.22° C | 42% | 1015.1 hPa | 0 mm | - | 447 W/m² | - |
| 1787858583 | 37.22° C | 40% | 1015.4 hPa | 0 mm | - | 459 W/m² | - |
| 1787858283 | 36.67° C | 42% | 1015.4 hPa | 0 mm | - | 510 W/m² | - |
| 1787857978 | 37.22° C | 44% | 1015.4 hPa | 0 mm | - | 606 W/m² | - |
* Rain latest hour (hover to see other rain measurements)
** Current wind speed in m/s (hover to see current wind gust speed)